Flag for Germany Weather past 2 weeks in Dortmund, North Rhine-Westphalia, Germany

Now
73 °F

Clear.


Feels Like: 74 °F
Forecast: 57 / 71 °F
Wind: 2 mph from North

Location: Dortmund / Wickede

Current Time: Aug 31, 2015 at 2:45:52 AM

Latest Report: Aug 30, 2015 at 10:50 PM


Visibility: 10 mi

Pressure: 29.98 "Hg

Humidity: 78%

Dew point: 66 °F

Location of DortmundLocation

Historic Weather in Dortmund — Graph

°F

Dortmund temperature yesterday

Maximum temperature yesterday: 88 °F (at 2:20 PM)
Minimum temperature yesterday: 61 °F (at 5:20 AM)
Average temperature yesterday: 77 °F

Past Weeks' High & Low Weather Summary

 TemperatureHumidityPressure
High88 °F (Aug 30, 2:20 PM)94% (Aug 16, 6:20 AM)30.24 "Hg (Aug 16, 6:20 AM)
Low50 °F (Aug 19, 5:20 AM)26% (Aug 22, 4:50 PM)29.56 "Hg (Aug 24, 2:50 PM)
Average65 °F66%29.97 "Hg
* Reported Aug 15 10:20 PM — Aug 30 10:50 PM, Dortmund, Weather by CustomWeather, © 2015

Note: Actual official high and low records may vary slightly from our data, if they occured in-between our weather recording intervals... More about our weather records

Advertising

Dortmund weather history for previous 24 hours

 ConditionsComfort  
Time TempWeatherWind HumidityBarometerVisibility
10:50 PM
Sun, Aug 30
73 °FClear.2 mph78%29.98 "Hg10 mi
10:20 PM73 °FClear.3 mph78%29.98 "Hg10 mi
9:20 PM77 °FSunny.1 mph74%30.01 "Hg10 mi
8:50 PM77 °FSunny.1 mph69%29.98 "Hg10 mi
8:20 PM77 °FSunny.2 mph69%29.98 "Hg10 mi
7:50 PM79 °FSunny.3 mph65%29.98 "Hg10 mi
7:20 PM82 °FPassing clouds.5 mph58%29.98 "HgN/A
6:50 PM84 °FSunny.5 mph55%29.98 "Hg10 mi
6:20 PM86 °FPassing clouds.6 mph52%29.98 "HgN/A
5:50 PM86 °FPassing clouds.5 mph49%29.98 "HgN/A
5:20 PM86 °FSunny.7 mph49%29.98 "Hg10 mi
4:50 PM88 °FSunny.9 mph43%29.98 "Hg10 mi
4:20 PM88 °FSunny.9 mph46%29.98 "Hg10 mi
3:50 PM88 °FPassing clouds.6 mph43%29.98 "HgN/A
3:20 PM86 °FPassing clouds.7 mph43%29.98 "HgN/A
2:50 PM88 °FPassing clouds.9 mph43%29.98 "HgN/A
2:20 PM88 °FPassing clouds.8 mph43%29.98 "HgN/A
1:50 PM86 °FPassing clouds.7 mph46%30.01 "HgN/A
1:20 PM84 °FSunny.3 mph51%30.01 "Hg10 mi
12:50 PM84 °FSunny.2 mph51%30.01 "Hg10 mi
12:20 PM82 °FSunny.2 mph55%30.01 "Hg10 mi
11:50 AM81 °FSunny.2 mph62%30.01 "Hg10 mi
11:20 AM79 °FSunny.2 mph65%30.04 "Hg10 mi
10:50 AM75 °FPassing clouds.6 mph65%30.04 "HgN/A
10:20 AM73 °FPassing clouds.6 mph69%30.04 "HgN/A
9:50 AM72 °FSunny.7 mph69%30.04 "Hg10 mi
9:20 AM70 °FSunny.8 mph73%30.07 "Hg10 mi
8:50 AM68 °FPassing clouds.9 mph78%30.07 "HgN/A
8:20 AM66 °FSunny.7 mph78%30.07 "Hg10 mi
7:50 AM63 °FSunny.6 mph88%30.07 "Hg10 mi
7:20 AM61 °FClear.3 mph88%30.07 "Hg10 mi
6:50 AM61 °FPassing clouds.6 mph88%30.07 "HgN/A
6:20 AM63 °FClear.5 mph88%30.04 "Hg10 mi
5:50 AM61 °FClear.2 mph88%30.04 "Hg10 mi
5:20 AM61 °FClear.2 mph88%30.04 "Hg10 mi
Weather by CustomWeather, © 2015

See weather overviewHow to use our weather pages